Wind_Speed
41 41 47 38 36 33 34 26 9 22 34 13 9 15 10 10 22 21 13 6 3 7 9 7 8 7 9 15 13 9 8 4 4 9 18 15 6 6 6 5 4 3 5 5
42 45 46 43 40 42 42 17 16 29 41 11 13 9 15 26 15 18 6 6 3 2 5 6 6 6 5 2 5 6 3 2 4 1 9 8 4 6 4 3 4 4 5 5
46 43 46 47 45 45 44 16 7 15 34 27 20 17 15 23 20 21 25 13 7 5 5 4 7 3 2 6 6 6 5 0 5 6 6 3 3 4 5 4 4 4 5 5
47 44 47 48 48 48 45 15 12 18 12 21 14 18 14 20 18 22 18 11 9 7 5 4 5 5 3 4 3 3 4 3 1 4 5 5 2 1 4 6 6 6 9 8
41 44 49 50 50 48 50 12 12 22 3 24 17 19 21 26 21 15 20 16 9 9 6 7 6 8 5 5 1 5 2 2 3 1 5 7 4 7 6 7 6 3 2 4
40 43 46 47 54 51 28 25 26 30 11 17 16 22 23 24 16 17 29 12 6 8 8 8 4 14 18 12 9 7 6 4 3 2 4 6 6 7 6 6 4 3 2 4
39 42 44 51 52 53 31 32 12 10 11 13 22 22 20 24 25 16 15 25 8 10 23 23 19 21 19 16 7 6 6 6 3 3 3 2 9 2 5 7 7 8 8 7
33 36 47 53 50 47 46 28 17 5 5 15 17 25 26 26 29 17 12 3 8 25 13 4 4 5 6 1 3 3 4 5 2 4 4 4 7 1 2 4 4 6 8 8
37 42 46 50 50 45 39 40 20 7 3 12 31 23 26 14 10 3 3 3 16 20 3 4 5 5 6 5 3 8 7 5 5 2 4 6 6 3 5 3 1 7 13 9
38 35 38 46 46 42 32 48 34 14 6 11 33 24 23 22 5 5 3 4 5 8 3 2 3 3 8 5 9 4 3 3 5 3 2 7 5 6 2 6 5 9 13 13
33 33 35 38 39 37 31 45 38 15 6 18 9 35 22 16 18 6 9 7 2 4 2 4 2 3 4 4 8 8 6 6 3 3 2 5 9 5 6 6 14 15 14 13
34 32 34 34 33 37 34 31 40 29 20 11 10 19 22 30 32 26 18 12 11 17 4 3 4 2 2 3 2 2 2 6 6 7 6 6 20 25 22 20 18 14 13 8
33 30 35 28 35 29 36 36 26 24 15 27 24 4 14 26 23 26 17 11 19 6 9 5 3 3 4 3 3 3 2 4 4 5 1 11 22 23 18 15 15 12 10 6
30 30 30 33 33 26 33 39 35 24 8 3 8 9 21 33 37 36 28 16 14 19 17 6 3 3 5 4 4 4 5 5 6 4 13 22 19 18 17 15 14 11 8 9
29 28 26 30 27 26 31 30 43 40 20 3 10 20 15 18 21 20 21 22 26 16 6 4 2 5 5 2 3 1 1 4 4 4 9 17 13 19 15 14 16 11 7 10
30 30 26 26 25 29 19 9 32 39 35 9 4 7 12 10 11 16 6 11 13 9 7 3 4 3 4 3 3 2 17 18 13 7 16 23 21 15 11 13 12 11 11 14
30 30 33 28 35 36 33 12 5 10 15 6 3 1 5 9 15 21 20 10 9 7 6 4 4 3 4 3 3 11 18 18 18 21 26 20 11 12 12 14 15 16 19 20
27 29 31 29 25 31 42 17 2 8 7 9 4 1 3 4 5 4 6 5 5 9 5 3 3 3 3 3 8 20 19 20 16 13 9 21 22 17 18 17 19 22 23 22
32 30 28 28 28 16 13 14 15 18 9 6 3 4 3 2 5 4 5 6 4 3 2 2 4 1 2 5 16 18 20 13 26 22 23 24 22 22 19 21 22 21 18 16
41 32 14 4 6 16 5 4 4 7 8 7 2 2 2 4 3 3 3 2 3 2 2 3 3 2 10 15 18 15 17 22 19 28 24 23 24 23 21 19 19 17 13 9
20 4 5 20 18 7 5 5 5 4 4 4 3 2 3 3 3 3 2 2 0 3 3 4 1 2 4 10 11 14 13 14 12 15 20 22 25 25 21 17 13 12 11 10
7 19 22 10 4 3 6 3 3 4 2 2 3 5 4 4 4 4 2 3 2 2 5 3 3 1 16 14 13 13 17 19 22 22 23 21 20 19 16 15 15 13 12 11
27 7 5 3 6 6 4 2 2 2 2 1 3 3 3 4 5 6 2 4 1 7 3 3 2 12 17 18 23 25 28 28 28 27 24 22 20 15 14 17 13 11 10 8
6 6 6 4 4 4 3 2 2 2 3 12 13 5 3 3 3 1 4 0 2 3 3 3 4 17 23 21 24 29 27 24 22 19 18 17 16 17 16 13 10 7 6 5
8 8 5 4 3 6 4 5 4 5 7 9 7 5 3 1 3 2 3 2 3 3 3 2 15 23 22 24 26 26 25 22 17 19 18 16 15 14 15 11 8 5 4 4
7 9 4 4 3 4 7 9 9 5 6 4 3 2 3 3 3 2 2 5 3 2 2 15 25 21 24 27 26 24 20 17 18 18 17 15 12 11 10 8 4 2 4 7
5 5 11 8 10 6 4 4 5 5 3 1 2 4 2 1 2 2 3 2 2 8 14 21 23 29 26 23 24 19 20 18 18 18 16 13 12 10 6 4 5 2 5 8
Wind_Direction
222 220 214 209 200 194 187 190 204 188 186 177 208 224 208 256 257 265 262 262 271 181 211 215 180 216 203 229 158 145 198 118 147 227 252 266 191 194 172 123 262 197 146 271
220 220 213 209 198 192 182 195 181 188 186 197 214 212 210 240 259 258 275 245 206 279 232 177 194 188 331 93 116 145 141 208 125 267 286 254 224 238 217 169 97 194 131 257
217 210 211 205 197 193 184 182 172 171 199 211 196 196 207 224 249 262 262 264 249 291 281 215 206 114 44 15 100 110 109 237 149 186 212 224 255 222 274 174 116 206 205 255
215 207 211 201 195 194 187 192 200 185 195 213 205 186 193 209 229 224 253 261 211 213 229 216 195 110 102 72 96 104 110 171 339 312 324 344 290 305 300 306 222 149 234 212
208 207 203 196 194 193 200 179 189 181 215 194 208 193 203 207 217 232 233 231 234 231 195 176 222 129 140 173 176 155 179 207 116 335 349 17 21 330 311 300 300 323 336 249
209 215 209 190 193 192 199 215 207 183 180 179 189 209 196 207 211 233 239 212 224 224 222 223 118 194 161 161 148 183 144 128 87 236 359 10 350 256 244 251 284 259 304 333
208 217 199 188 193 197 197 207 211 198 199 192 204 188 195 203 225 218 234 213 190 187 125 109 84 74 66 87 47 172 146 119 102 175 38 38 243 265 124 94 58 65 71 63
209 203 188 185 191 198 203 205 222 231 210 197 198 196 195 210 225 226 244 187 275 159 120 80 51 354 28 21 120 42 85 110 96 134 186 287 321 53 127 122 36 38 65 35
196 181 180 183 190 196 206 205 223 301 296 221 191 194 193 204 207 82 23 135 134 159 106 104 150 179 176 166 104 27 59 95 118 133 145 200 237 159 52 65 46 36 58 43
173 174 177 183 190 196 202 220 228 246 317 246 186 194 198 197 125 124 101 84 19 322 93 114 157 214 160 151 153 168 45 15 143 130 181 285 226 146 166 96 217 71 64 58
173 181 184 189 189 185 203 213 219 210 275 285 260 201 194 166 163 143 156 90 303 270 100 122 207 110 222 117 158 167 158 139 190 99 104 278 172 109 129 172 87 74 64 55
182 186 191 192 192 194 198 213 222 216 241 279 340 196 205 205 182 137 154 131 151 222 101 68 83 60 36 121 182 179 128 172 173 160 207 215 96 100 96 99 78 57 61 61
191 193 190 197 194 214 207 207 210 207 250 280 265 151 168 186 204 206 152 169 200 201 118 136 119 128 129 131 244 112 94 138 109 85 326 95 89 94 95 93 83 80 84 88
198 199 206 199 206 213 204 206 208 195 171 324 268 148 150 150 171 167 153 145 196 146 132 94 122 132 170 207 195 126 202 120 148 111 112 85 71 87 107 106 94 98 96 86
205 209 204 204 217 209 208 217 217 208 206 220 199 98 99 151 161 150 162 180 153 131 91 86 152 150 95 323 73 67 115 172 137 198 104 111 99 104 122 116 106 110 109 95
213 209 196 179 175 180 163 214 224 237 224 264 43 59 76 116 154 153 126 152 131 115 103 99 91 108 127 109 127 85 100 90 129 125 132 129 130 123 118 118 118 109 105 101
178 181 171 170 172 174 173 197 256 233 178 178 74 47 114 115 115 107 108 168 85 96 93 72 127 95 91 111 128 141 112 111 102 126 128 116 141 122 117 119 113 112 106 101
166 158 151 157 165 180 207 267 37 111 118 81 94 12 37 34 49 64 49 86 67 46 86 69 82 45 40 78 109 124 122 114 108 135 175 141 127 121 113 118 119 110 103 99
137 140 147 172 174 197 172 116 79 76 85 106 89 124 172 109 60 58 48 45 66 74 96 107 90 177 83 151 126 126 137 134 123 119 120 128 125 123 123 118 113 111 112 117
130 146 170 108 82 123 72 56 66 45 48 57 79 106 139 122 114 77 104 38 144 97 243 109 78 82 92 97 122 127 126 142 148 127 126 131 128 132 128 123 126 126 126 120
136 92 63 112 112 57 43 56 59 20 43 67 53 113 130 76 111 144 81 163 90 96 239 117 110 148 153 144 134 141 156 154 142 148 142 141 145 141 137 135 134 133 127 116
115 119 109 85 78 18 76 47 4 54 118 36 86 45 71 69 106 106 89 104 45 108 154 90 164 116 150 152 150 150 154 146 139 142 138 142 139 144 147 138 132 124 118 111
121 107 92 74 355 51 69 92 27 67 40 67 115 60 54 60 75 76 90 70 179 110 130 161 118 140 148 137 131 128 133 136 135 134 141 145 141 143 141 136 131 125 119 100
63 49 53 46 39 41 23 17 45 52 63 110 87 63 72 70 55 93 86 307 125 154 165 212 142 146 147 137 135 133 129 135 140 144 146 142 141 136 137 138 132 126 106 70
61 37 52 53 83 52 34 49 67 72 97 98 90 69 92 27 92 61 109 97 151 187 190 109 150 151 149 139 143 138 139 139 140 142 139 139 140 139 133 129 124 102 67 21
54 46 60 38 63 30 37 57 53 62 95 100 121 124 75 50 107 104 114 136 155 111 70 139 151 146 141 145 142 140 145 142 147 148 145 144 139 132 127 118 104 56 0 360
48 36 45 77 72 62 47 55 33 60 85 57 32 59 66 108 69 68 19 57 63 109 127 141 146 141 140 149 138 152 154 149 149 147 152 148 139 136 147 118 93 9 332 346
Height
1387 1396 1407 1416 1426 1438 1445 1454 1456 1460 1467 1477 1470 1464 1466 1465 1451 1454 1454 1446 1446 1449 1453 1456 1461 1463 1458 1452 1458 1469 1472 1489 1508 1499 1485 1479 1475 1482 1488 1519 1505 1509 1526 1515
1377 1386 1397 1406 1417 1426 1435 1441 1450 1454 1456 1460 1456 1460 1463 1463 1452 1451 1448 1445 1442 1442 1449 1457 1455 1454 1456 1452 1455 1463 1466 1481 1509 1499 1490 1478 1476 1474 1474 1480 1498 1503 1530 1514
1366 1376 1387 1397 1408 1417 1428 1434 1439 1448 1448 1439 1444 1452 1454 1455 1449 1450 1445 1444 1440 1443 1447 1444 1452 1457 1455 1454 1455 1460 1461 1470 1483 1503 1488 1478 1478 1474 1473 1480 1514 1503 1505 1491
1357 1367 1378 1388 1399 1410 1421 1420 1419 1418 1422 1430 1432 1441 1446 1451 1448 1445 1439 1440 1438 1443 1449 1444 1448 1453 1456 1457 1459 1461 1464 1477 1471 1472 1472 1473 1471 1473 1475 1478 1480 1496 1488 1484
1349 1358 1369 1377 1390 1404 1412 1407 1407 1411 1411 1423 1431 1430 1431 1435 1437 1438 1437 1442 1435 1437 1444 1442 1448 1447 1451 1458 1461 1462 1463 1477 1472 1478 1474 1477 1482 1477 1473 1475 1472 1471 1473 1477
1340 1350 1357 1367 1381 1394 1395 1401 1402 1405 1408 1414 1423 1410 1418 1424 1432 1431 1432 1431 1435 1436 1435 1434 1437 1435 1441 1446 1455 1463 1466 1473 1490 1490 1487 1485 1501 1479 1474 1472 1470 1470 1479 1478
1334 1342 1348 1361 1374 1385 1391 1393 1400 1399 1399 1404 1398 1413 1418 1421 1421 1427 1423 1425 1430 1431 1431 1434 1437 1439 1443 1447 1453 1454 1465 1471 1489 1502 1501 1516 1478 1464 1463 1470 1473 1472 1473 1474
1328 1335 1343 1357 1370 1381 1387 1391 1397 1396 1399 1395 1402 1404 1405 1416 1418 1423 1423 1421 1425 1427 1429 1449 1456 1464 1461 1457 1456 1458 1456 1474 1493 1504 1508 1487 1472 1466 1466 1470 1482 1475 1474 1474
1323 1331 1340 1355 1365 1376 1385 1387 1393 1394 1392 1380 1391 1401 1405 1410 1414 1421 1421 1423 1422 1425 1431 1448 1460 1473 1460 1465 1462 1461 1461 1466 1486 1499 1506 1512 1477 1464 1463 1464 1491 1476 1475 1475
1322 1332 1341 1353 1363 1373 1382 1384 1388 1397 1392 1381 1385 1384 1389 1401 1408 1418 1422 1420 1425 1430 1441 1458 1463 1461 1443 1467 1471 1478 1485 1484 1493 1506 1509 1489 1465 1462 1463 1486 1493 1475 1475 1476
1325 1334 1342 1351 1360 1370 1377 1382 1390 1393 1395 1382 1384 1391 1390 1393 1399 1411 1417 1425 1436 1436 1436 1446 1452 1459 1452 1457 1454 1465 1474 1487 1497 1495 1498 1493 1460 1463 1473 1475 1473 1474 1476 1477
1325 1333 1342 1351 1360 1370 1375 1381 1385 1394 1401 1389 1388 1383 1380 1383 1391 1399 1412 1414 1427 1420 1426 1434 1444 1453 1458 1454 1468 1449 1467 1462 1472 1472 1476 1460 1459 1464 1467 1469 1472 1475 1475 1477
1326 1334 1342 1349 1356 1363 1370 1380 1388 1396 1400 1392 1393 1383 1382 1381 1387 1398 1405 1413 1421 1412 1409 1423 1439 1451 1449 1463 1459 1449 1446 1446 1456 1459 1457 1460 1463 1465 1466 1469 1471 1473 1475 1476
1325 1333 1341 1348 1357 1363 1370 1378 1385 1396 1401 1401 1389 1385 1384 1383 1394 1390 1393 1400 1407 1405 1409 1421 1437 1445 1436 1452 1444 1447 1446 1445 1450 1457 1462 1462 1467 1467 1468 1470 1471 1473 1475 1476
1324 1332 1340 1349 1357 1364 1368 1377 1382 1390 1399 1387 1378 1373 1378 1384 1389 1394 1394 1403 1399 1403 1412 1423 1432 1430 1436 1440 1441 1449 1442 1445 1456 1463 1456 1457 1469 1469 1469 1470 1472 1475 1476 1478
1324 1331 1341 1348 1358 1362 1368 1380 1375 1375 1384 1377 1371 1378 1380 1384 1386 1384 1393 1403 1402 1403 1409 1419 1425 1428 1432 1448 1456 1446 1445 1444 1445 1451 1454 1457 1465 1468 1470 1471 1474 1475 1477 1478
1322 1330 1341 1344 1350 1358 1364 1373 1370 1366 1372 1374 1383 1391 1391 1392 1390 1392 1396 1405 1403 1405 1413 1421 1425 1428 1431 1441 1449 1444 1446 1447 1449 1452 1454 1462 1465 1468 1471 1472 1474 1476 1478 1481
1319 1326 1337 1347 1358 1367 1372 1366 1365 1363 1364 1366 1382 1393 1395 1394 1394 1397 1400 1404 1407 1410 1418 1424 1427 1430 1432 1444 1440 1442 1445 1448 1451 1453 1454 1459 1465 1469 1472 1474 1476 1478 1482 1485
1326 1332 1342 1353 1360 1361 1363 1364 1363 1363 1366 1374 1385 1393 1400 1399 1401 1402 1403 1405 1414 1420 1423 1425 1430 1437 1440 1438 1439 1443 1446 1447 1452 1455 1459 1463 1466 1471 1475 1477 1480 1481 1484 1487
1332 1344 1347 1347 1351 1355 1358 1361 1361 1364 1370 1378 1389 1393 1399 1401 1403 1408 1412 1413 1419 1424 1427 1426 1432 1441 1441 1441 1442 1444 1447 1449 1452 1455 1462 1465 1469 1473 1477 1479 1482 1484 1485 1487
1340 1344 1349 1354 1356 1358 1361 1365 1371 1374 1383 1388 1393 1394 1395 1398 1401 1406 1410 1415 1417 1426 1428 1429 1434 1438 1441 1443 1443 1446 1449 1452 1455 1457 1461 1465 1468 1473 1476 1480 1482 1484 1486 1487
1342 1348 1355 1360 1364 1366 1370 1381 1382 1385 1391 1391 1392 1394 1395 1397 1399 1403 1410 1414 1417 1424 1422 1429 1434 1439 1439 1442 1444 1447 1449 1452 1456 1459 1463 1468 1471 1474 1477 1480 1482 1484 1486 1488
1348 1352 1359 1363 1371 1376 1380 1387 1385 1387 1390 1392 1391 1395 1397 1400 1401 1405 1410 1413 1426 1419 1424 1426 1435 1437 1441 1443 1445 1449 1452 1454 1457 1462 1466 1470 1473 1476 1478 1480 1483 1485 1486 1488
1348 1355 1367 1374 1379 1387 1388 1388 1389 1391 1391 1391 1390 1396 1401 1403 1405 1409 1411 1421 1419 1422 1427 1430 1435 1437 1442 1445 1448 1451 1455 1457 1462 1466 1470 1473 1475 1477 1480 1482 1484 1485 1486 1487
1359 1367 1382 1388 1392 1392 1392 1391 1392 1393 1393 1393 1396 1401 1405 1406 1408 1412 1418 1422 1420 1423 1428 1430 1433 1438 1443 1446 1450 1453 1457 1461 1466 1469 1472 1474 1476 1478 1480 1482 1484 1485 1485 1486
1375 1384 1390 1392 1393 1396 1396 1396 1396 1397 1397 1398 1401 1403 1406 1409 1411 1411 1414 1420 1423 1426 1428 1430 1435 1439 1443 1448 1452 1456 1460 1464 1468 1471 1473 1475 1477 1479 1480 1482 1483 1483 1483 1483
1391 1398 1397 1398 1400 1402 1401 1401 1400 1400 1401 1402 1402 1405 1411 1412 1413 1418 1422 1425 1428 1429 1431 1433 1436 1440 1445 1450 1454 1458 1462 1465 1469 1471 1474 1476 1477 1478 1480 1481 1482 1481 1481 1481